Eddersheim, Germany

3:46 PM CET on February 25, 2018 (GMT +0100)
Eddersheim

Weather History for 10637 - June, 2013

Change the Weather History Date:

Sunday, June 16, 2013

  Actual Average Record
Temperature  
Mean Temperature 64 °F -  
Max Temperature 76 °F 74 °F - ()
Min Temperature 51 °F 55 °F - ()
Degree Days  
Heating Degree Days 2    
Growing Degree Days 14 (Base 50)    
Moisture  
Dew Point 48 °F    
Average Humidity 56    
Maximum Humidity 88    
Minimum Humidity 23    
Precipitation  
Precipitation 0.00 in - - ()
Sea Level Pressure  
Sea Level Pressure 30.02 in    
Wind  
Wind Speed 5 mph ()    
Max Wind Speed 11 mph    
Max Gust Speed 23 mph    
Visibility 6.2 miles    
Events Fog    
T = Trace of Precipitation, MM = Missing Value Source: Averaged Metar Reports

Daily Weather History Graph

Daily Weather History Graph

Search for Another Location

Airport or City:

Trip Planner

Search our weather history database for the weather conditions in past years. The results will help you decide how hot, cold, wet, or windy it might be!

Date:

Astronomy

Jun. 16, 2013 Rise Set
Actual Time 5:15 AM CEST 9:37 PM CEST
Civil Twilight 4:30 AM CEST 10:21 PM CEST
Nautical Twilight 3:25 AM CEST 11:27 PM CEST
Astronomical Twilight 1:58 AM CEST 12:54 AM CEST
Moon 1:16 PM CEST (6/16) 12:55 AM CEST (6/16)
Length of Visible Light 17h 51m
Length of Day
16h 21m
Waxing Crescent, 47% of the Moon is Illuminated
Jun 16
Waxing Crescent
Jun 16
First Quarter
Jun 23
Full
Jun 30
Last Quarter
Jul 8
New

Hourly Weather History & Observations

Time (CEST) Temp. Dew Point Humidity Pressure Visibility Wind Dir Wind Speed Gust Speed Precip Events Conditions
12:00 AM 61 °F 49 °F 54% 30.02 in 47 mi SW 6.7 mph - -   Partly Cloudy
12:20 AM 59.0 °F 48.2 °F 67% 30.01 in - South 4.6 mph - N/A   Clear
12:50 AM 57.2 °F 48.2 °F 72% 30.04 in - South 3.5 mph - N/A   Clear
1:00 AM 58 °F 49 °F 64% 30.04 in 47 mi South 4.5 mph - -   Scattered Clouds
1:20 AM 57.2 °F 50.0 °F 77% 30.04 in - South 3.5 mph - N/A   Clear
1:50 AM 57.2 °F 50.0 °F 77% 30.04 in - South 3.5 mph - N/A   Clear
2:00 AM 56 °F 50 °F 73% 30.04 in 47 mi South 4.5 mph - -   Clear
2:20 AM 55.4 °F 50.0 °F 82% 30.04 in - South 4.6 mph - N/A   Clear
2:50 AM 55.4 °F 50.0 °F 82% 30.04 in - South 5.8 mph - N/A   Clear
3:00 AM 55 °F 50 °F 76% 30.04 in 44 mi South 4.5 mph - -   Clear
3:20 AM 55.4 °F 50.0 °F 82% 30.04 in 6.2 mi South 5.8 mph - N/A Fog Patches of Fog
3:50 AM 55.4 °F 50.0 °F 82% 30.04 in 6.2 mi South 5.8 mph - N/A Fog Patches of Fog
4:00 AM 54 °F 50 °F 81% 30.05 in 44 mi South 6.7 mph - -   Scattered Clouds
4:20 AM 53.6 °F 50.0 °F 88% 30.04 in 6.2 mi Variable 1.2 mph - N/A Fog Patches of Fog
4:50 AM 51.8 °F 48.2 °F 88% 30.04 in 6.2 mi Variable 2.3 mph - N/A Fog Patches of Fog
5:20 AM 55.4 °F 51.8 °F 88% 30.04 in 6.2 mi SSW 4.6 mph - N/A Fog Patches of Fog
5:50 AM 53.6 °F 50.0 °F 88% 30.04 in 6.2 mi SSW 4.6 mph - N/A Fog Patches of Fog
6:00 AM 54 °F 50 °F 80% 30.06 in 44 mi SSW 4.5 mph - -   Scattered Clouds
6:20 AM 55.4 °F 50.0 °F 82% 30.06 in - SW 5.8 mph - N/A   Clear
6:50 AM 55.4 °F 50.0 °F 82% 30.06 in - SSW 5.8 mph - N/A   Clear
7:00 AM 56 °F 50 °F 73% 30.07 in 44 mi SSW 6.7 mph - -   Scattered Clouds
7:20 AM 57.2 °F 51.8 °F 82% 30.06 in - SSW 4.6 mph - N/A   Clear
7:50 AM 59.0 °F 50.0 °F 72% 30.06 in - SSW 5.8 mph - N/A   Clear
8:00 AM 58 °F 50 °F 67% 30.07 in 44 mi SSW 4.5 mph - -   Scattered Clouds
8:20 AM 59.0 °F 50.0 °F 72% 30.06 in - SW 6.9 mph - N/A   Clear
8:50 AM 59.0 °F 50.0 °F 72% 30.06 in - SSW 4.6 mph - N/A   Clear
9:00 AM 59 °F 50 °F 63% 30.07 in 44 mi SSW 4.5 mph - -   Partly Cloudy
9:20 AM 60.8 °F 48.2 °F 63% 30.06 in - SW 6.9 mph - N/A   Clear
9:50 AM 62.6 °F 50.0 °F 63% 30.06 in 6.2 mi SW 9.2 mph - N/A   Mostly Cloudy
10:00 AM 63 °F 49 °F 51% 30.07 in 44 mi SW 8.9 mph - -   Scattered Clouds
10:20 AM 64.4 °F 48.2 °F 56% 30.06 in 6.2 mi SW 9.2 mph - N/A   Mostly Cloudy
10:50 AM 64.4 °F 48.2 °F 56% 30.04 in 6.2 mi SW 6.9 mph - N/A   Mostly Cloudy
11:20 AM 68.0 °F 48.2 °F 49% 30.04 in 6.2 mi SW 9.2 mph - N/A   Mostly Cloudy
11:50 AM 66.2 °F 44.6 °F 46% 30.04 in 6.2 mi SSW 10.4 mph - N/A   Scattered Clouds
12:00 PM 67 °F 45 °F 34% 30.05 in 44 mi South 11.2 mph - -   Scattered Clouds
12:20 PM 68.0 °F 44.6 °F 43% 30.04 in 6.2 mi SSW 10.4 mph - N/A   Scattered Clouds
12:50 PM 69.8 °F 46.4 °F 43% 30.04 in - SW 10.4 mph - N/A   Clear
1:00 PM 70 °F 48 °F 34% 30.03 in 44 mi SW 8.9 mph - -   Scattered Clouds
1:20 PM 69.8 °F 46.4 °F 43% 30.04 in - SW 8.1 mph - N/A   Clear
1:50 PM 69.8 °F 44.6 °F 40% 30.04 in - SW 10.4 mph 23.0 mph N/A   Clear
2:00 PM 70 °F 46 °F 31% 30.02 in 44 mi SW 11.2 mph - -   Scattered Clouds
2:20 PM 71.6 °F 46.4 °F 41% 30.01 in - SW 6.9 mph - N/A   Clear
2:50 PM 73.4 °F 48.2 °F 41% 30.01 in - WSW 8.1 mph - N/A   Clear
3:00 PM 73 °F 49 °F 31% 30.00 in 44 mi WSW 8.9 mph - -   Scattered Clouds
3:20 PM 73.4 °F 48.2 °F 41% 30.01 in - SSW 10.4 mph - N/A   Clear
3:50 PM 73.4 °F 48.2 °F 41% 29.98 in - WSW 10.4 mph - N/A   Clear
4:00 PM 74 °F 47 °F 27% 29.99 in 44 mi WSW 8.9 mph - -   Scattered Clouds
4:20 PM 75.2 °F 50.0 °F 41% 29.98 in - SW 5.8 mph - N/A   Clear
4:50 PM 75.2 °F 46.4 °F 36% 29.98 in - WSW 8.1 mph - N/A   Clear
5:20 PM 75.2 °F 48.2 °F 38% 29.98 in - West 1.2 mph - N/A   Clear
5:50 PM 75.2 °F 44.6 °F 34% 29.98 in - SW 4.6 mph - N/A   Clear
6:00 PM 75 °F 45 °F 23% 29.96 in 44 mi SW 4.5 mph - -   Scattered Clouds
6:20 PM 75.2 °F 46.4 °F 36% 29.98 in - NW 3.5 mph - N/A   Clear
6:50 PM 77.0 °F 46.4 °F 34% 29.98 in - Variable 3.5 mph - N/A   Clear
7:00 PM 76 °F 46 °F 23% 29.97 in 44 mi West 2.2 mph - -   Scattered Clouds
7:20 PM 77.0 °F 46.4 °F 34% 29.98 in - SSW 1.2 mph - N/A   Clear
7:50 PM 75.2 °F 46.4 °F 36% 29.98 in - North 3.5 mph - N/A   Clear
8:00 PM 75 °F 46 °F 25% 29.97 in 44 mi North 4.5 mph - -   Scattered Clouds
8:20 PM 73.4 °F 46.4 °F 38% 29.98 in - NE 3.5 mph - N/A   Clear
8:50 PM 69.8 °F 48.2 °F 46% 29.98 in - ENE 3.5 mph - N/A   Clear
9:00 PM 71 °F 49 °F 35% 29.97 in 44 mi ENE 2.2 mph - -   Scattered Clouds
9:20 PM 69.8 °F 48.2 °F 46% 29.98 in - ENE 2.3 mph - N/A   Clear
9:50 PM 68.0 °F 50.0 °F 52% 29.98 in - ENE 3.5 mph - N/A   Clear
10:00 PM 68 °F 50 °F 41% 29.98 in 44 mi ENE 4.5 mph - -   Partly Cloudy
10:20 PM 68.0 °F 50.0 °F 52% 29.98 in - ENE 4.6 mph - N/A   Clear
10:50 PM 66.2 °F 50.0 °F 56% 29.98 in - NNE 4.6 mph - N/A   Clear
11:20 PM 66.2 °F 51.8 °F 60% 29.98 in - NNE 4.6 mph - N/A   Clear
11:50 PM 64.4 °F 51.8 °F 64% 29.98 in - Variable 3.5 mph - N/A   Clear